Date,TemperatureHighF,TemperatureAvgF,TemperatureLowF,DewpointHighF,DewpointAvgF,DewpointLowF,HumidityHigh,HumidityAvg,HumidityLow,PressureMaxIn,PressureMinIn,WindSpeedMaxMPH,WindSpeedAvgMPH,GustSpeedMaxMPH,PrecipitationSumIn
2013-1-1,33,26,17,33,26,17,98,98,98,29.97,29.80,13,5,0,0.00
2013-1-2,29,22,18,28,22,18,98,98,98,30.11,29.92,18,8,0,0.00
2013-1-3,31,26,18,31,25,18,98,98,98,30.08,29.86,19,7,0,0.00
2013-1-4,35,31,29,34,30,28,98,98,98,29.96,29.78,27,14,0,0.00
2013-1-5,36,32,28,36,31,27,98,98,98,30.20,29.94,12,6,0,0.00
2013-1-6,37,36,34,37,36,34,98,98,98,30.01,29.78,13,8,0,0.00
2013-1-7,36,31,25,36,30,24,98,98,98,30.32,30.03,21,6,0,0.00
2013-1-8,41,35,30,40,34,29,98,98,98,30.21,30.04,17,5,0,0.00
2013-1-9,47,41,32,47,40,32,98,98,98,30.27,29.85,24,9,0,0.00
2013-1-10,46,38,33,45,37,33,98,98,98,30.51,30.28,9,3,0,0.00
2013-1-11,51,42,34,50,42,34,98,98,98,30.28,29.74,13,4,0,0.09
2013-1-12,60,53,48,59,53,47,98,98,98,29.88,29.80,20,7,0,0.00
2013-1-13,63,53,45,62,53,44,98,98,98,29.84,29.61,21,5,0,1.75
2013-1-14,45,33,27,44,32,27,98,98,98,30.31,29.68,20,8,0,0.09
2013-1-15,34,30,27,34,29,26,98,98,98,30.33,30.09,10,4,0,0.00
2013-1-16,41,33,27,40,32,27,98,98,98,30.07,29.67,20,5,0,0.00
2013-1-17,36,26,18,36,26,18,98,98,98,30.10,29.76,18,7,0,0.00
2013-1-18,36,23,14,35,23,13,98,98,98,30.36,29.88,15,7,0,0.00
2013-1-19,48,42,36,48,42,35,98,98,98,29.89,29.45,24,11,0,0.00
2013-1-20,48,30,19,48,29,19,98,98,98,30.01,29.35,32,16,0,0.04
2013-1-21,22,18,12,21,17,12,98,98,98,29.99,29.83,18,8,0,0.00
2013-1-22,15,10,7,14,9,6,98,97,88,30.12,29.83,29,14,0,0.00
2013-1-23,17,10,6,15,9,6,98,97,88,30.15,30.05,22,7,0,0.00
2013-1-24,21,15,9,20,14,9,98,98,98,30.45,30.25,15,5,0,0.00
2013-1-25,21,14,9,20,14,9,98,98,98,30.43,29.99,10,3,0,0.00
2013-1-26,28,20,13,28,20,12,98,98,98,30.32,29.99,7,2,0,0.00
2013-1-27,34,26,19,33,25,19,98,98,98,30.47,30.22,8,2,0,0.00
2013-1-28,43,35,26,42,34,25,98,98,98,30.22,29.74,12,4,0,0.56
2013-1-29,39,37,36,38,36,35,98,98,98,29.94,29.90,6,2,0,0.00
2013-12-22,37,34,32,36,32,-100,98,95,77,29.83,29.49,1,-11,0,0.48
2013-12-23,37,32,24,36,20,3,98,61,36,30.17,29.82,2,0,0,0.01
2013-12-24,26,21,9,15,2,-10,65,44,30,30.43,30.13,1,0,0,0.00
2013-12-25,24,20,8,7,-1,-11,49,40,32,30.42,30.04,0,0,0,0.00
2013-12-26,41,28,22,20,8,-1,71,42,25,30.18,29.93,4,0,0,0.11
2013-12-27,38,29,21,22,11,-1,76,47,32,30.18,29.93,3,1,0,0.01
2013-12-28,43,39,34,19,18,15,52,41,35,29.98,29.79,5,2,0,0.17
2013-12-29,46,41,27,19,11,1,44,30,15,29.79,29.50,3,1,0,0.00
2013-12-30,27,21,19,3,-10,-19,35,25,14,30.12,29.71,3,0,0,0.00
2013-12-31,23,18,14,4,-7,-16,48,32,21,30.17,29.86,5,1,0,0.00
2014-1-1,23,17,14,0,-8,-18,48,33,15,30.30,30.17,3,1,0,0.00
2014-1-2,16,12,6,2,-3,-10,52,49,47,30.21,29.92,7,1,0,0.00